FW3734 Weather Reports


time (UTC)temp
F
wind
direction
speed
knots
gust
knots
rain 1hr
in
rain 24hr
in
rain mn
in
humidity
%
barometer
mb
20260906144544 78 66 0.9 6.1 0.00 0.00 0.00 79 1015.0
20260906143047 78 142 1.7 8.7 0.00 0.00 0.00 79 1014.9
20260906141541 78 84 2.6 7.8 0.00 0.00 0.00 81 1014.8
20260906140049 77 11 0.9 9.6 0.00 0.00 0.00 82 1014.7
20260906134539 76 327 0.0 7.8 0.00 0.00 0.00 83 1014.7
20260906133038 76 20 0.9 5.2 0.00 0.00 0.00 84 1014.8
20260906131537 75 41 1.7 4.3 0.00 0.00 0.00 85 1014.8
20260906130040 75 27 0.0 5.2 0.00 0.00 0.00 86 1014.7
20260906124535 75 9 0.0 5.2 0.00 0.00 0.00 87 1014.6
20260906123032 75 40 2.6 5.2 0.00 0.00 0.00 87 1014.3
20260906121530 75 325 0.9 4.3 0.00 0.00 0.00 87 1014.2
20260906120028 75 57 0.0 3.5 0.00 0.00 0.00 87 1014.1
20260906114526 75 5 0.0 2.6 0.00 0.00 0.00 87 1014.0
20260906113024 75 5 0.0 0.0 0.00 0.00 0.00 86 1014.0
20260906111522 76 5 0.0 0.9 0.00 0.00 0.00 86 1013.7
20260906110020 76 144 0.0 0.0 0.00 0.00 0.00 85 1013.5
20260906104519 77 155 0.0 1.7 0.00 0.00 0.00 84 1013.5
20260906103016 77 5 0.0 0.0 0.00 0.00 0.00 84 1013.4
20260906101513 77 115 0.0 0.0 0.00 0.00 0.00 83 1013.3
20260906100012 78 11 0.0 2.6 0.00 0.00 0.00 81 1013.2
20260906094515 78 88 0.0 7.0 0.00 0.00 0.00 81 1013.1
20260906093012 78 94 0.9 7.8 0.00 0.00 0.00 81 1013.0
20260906091504 79 60 1.7 7.8 0.00 0.00 0.00 82 1012.8
20260906090002 79 74 0.0 7.0 0.00 0.00 0.00 82 1012.7
20260906084601 79 345 2.6 7.0 0.00 0.00 0.00 81 1012.6
20260906083058 80 75 5.2 8.7 0.00 0.00 0.00 81 1012.6
20260906081555 81 98 2.6 7.0 0.00 0.00 0.00 81 1012.6
20260906080058 81 71 1.7 7.8 0.00 0.00 0.00 81 1012.6
20260906074558 82 355 0.9 7.0 0.00 0.00 0.00 81 1012.6
20260906073050 82 111 1.7 6.1 0.00 0.00 0.00 80 1012.5
20260906071549 82 60 1.7 4.3 0.00 0.00 0.00 80 1012.4
20260906070044 83 111 0.0 6.1 0.00 0.00 0.00 79 1012.4
20260906064542 83 103 1.7 7.8 0.00 0.00 0.00 78 1012.6
20260906063040 84 64 0.0 7.0 0.00 0.00 0.00 77 1012.6
20260906061540 84 102 0.9 6.1 0.00 0.00 0.00 76 1012.6
20260906060037 85 103 0.0 3.5 0.00 0.00 0.00 75 1012.7
20260906054535 85 113 0.0 6.1 0.00 0.00 0.00 74 1012.6
20260906053032 86 53 0.0 7.0 0.00 0.00 0.00 73 1012.7
20260906051530 86 355 0.0 5.2 0.00 0.00 0.00 72 1012.6
20260906050029 87 69 0.0 7.0 0.00 0.00 0.00 71 1012.5
20260906044526 87 108 3.5 9.6 0.00 0.00 0.00 70 1012.3
20260906043026 87 107 0.0 0.0 0.00 0.00 0.00 69 1012.3
20260906041535 87 30 0.0 0.0 0.00 0.00 0.00 68 1012.3
20260906040024 87 36 0.0 0.0 0.00 0.00 0.00 66 1012.1
20260906034529 88 76 0.0 0.0 0.00 0.00 0.00 64 1012.0
20260906033025 88 28 0.0 2.6 0.00 0.00 0.00 62 1012.0
20260906031522 88 20 0.0 0.9 0.00 0.00 0.00 60 1011.8
20260906030022 89 20 0.0 0.0 0.00 0.00 0.00 59 1011.8
20260906024522 89 20 0.0 0.0 0.00 0.00 0.00 58 1011.6
20260906023022 89 26 0.0 0.0 0.00 0.00 0.00 57 1011.4
20260906021521 89 26 0.0 0.0 0.00 0.00 0.00 57 1011.2
20260906020021 90 26 0.0 0.0 0.00 0.00 0.00 57 1011.1
20260906014524 90 26 0.0 0.0 0.00 0.00 0.00 56 1010.9
20260906013020 91 26 0.0 0.0 0.00 0.00 0.00 56 1010.6
20260906011519 92 26 0.0 0.0 0.00 0.00 0.00 55 1010.5
20260906010018 92 26 0.0 0.0 0.00 0.00 0.00 54 1010.4
20260906004517 93 26 0.0 0.0 0.00 0.00 0.00 52 1010.2
20260906003017 94 344 0.0 0.0 0.00 0.00 0.00 51 1010.2
20260906001517 95 5 0.0 0.0 0.00 0.00 0.00 50 1010.2
20260906000016 95 5 0.0 0.9 0.00 0.00 0.00 48 1010.1
20260905234516 96 15 0.0 0.0 0.00 0.00 0.00 47 1010.2
20260905233016 96 5 0.0 2.6 0.00 0.00 0.00 46 1010.3
20260905231514 97 248 0.0 5.2 0.00 0.00 0.00 46 1010.4
20260905230014 97 287 0.0 0.9 0.00 0.00 0.00 45 1010.4
20260905224519 98 348 0.0 0.0 0.00 0.00 0.00 44 1010.2
20260905223012 98 288 0.0 0.9 0.00 0.00 0.00 43 1010.1
20260905221527 98 282 0.0 0.0 0.00 0.00 0.00 45 1010.3
20260905220010 99 285 0.0 0.9 0.00 0.00 0.00 46 1010.2
20260905214511 98 225 0.0 3.5 0.00 0.00 0.00 45 1010.3
20260905213009 98 296 0.0 7.0 0.00 0.00 0.00 45 1010.2
20260905211508 97 252 0.0 0.0 0.00 0.00 0.00 46 1010.3
20260905210008 97 261 0.0 0.9 0.00 0.00 0.00 45 1010.5
20260905204504 99 240 0.0 0.9 0.00 0.00 0.00 43 1010.6
20260905203002 99 276 0.0 0.0 0.00 0.00 0.00 42 1010.5
20260905201502 99 342 0.0 0.9 0.00 0.00 0.00 40 1010.7
20260905200004 100 350 0.9 7.8 0.00 0.00 0.00 40 1010.7
20260905194558 100 355 0.0 7.8 0.00 0.00 0.00 39 1010.9
20260905193055 100 256 0.0 1.7 0.00 0.00 0.00 42 1011.2
20260905191556 99 333 0.0 9.6 0.00 0.00 0.00 42 1011.5
20260905190104 99 51 0.0 3.5 0.00 0.00 0.00 42 1011.5
20260905184605 99 300 0.0 7.0 0.00 0.00 0.00 43 1011.6
20260905183047 99 333 0.0 2.6 0.00 0.00 0.00 44 1011.8
20260905181543 98 347 0.0 2.6 0.00 0.00 0.00 46 1011.9
20260905180038 97 17 0.0 6.1 0.00 0.00 0.00 47 1012.1
20260905174544 97 226 0.0 1.7 0.00 0.00 0.00 48 1012.2
20260905173037 97 289 0.0 6.1 0.00 0.00 0.00 49 1012.3
20260905171527 96 338 0.0 4.3 0.00 0.00 0.00 49 1012.6
20260905170025 96 28 0.0 2.6 0.00 0.00 0.00 49 1012.7
20260905164522 95 316 0.0 7.0 0.00 0.00 0.00 50 1012.9
20260905163024 95 324 0.0 0.9 0.00 0.00 0.00 52 1013.0
20260905161514 94 331 0.0 1.7 0.00 0.00 0.00 54 1013.1
20260905160011 93 278 0.0 1.7 0.00 0.00 0.00 55 1013.0
20260905154507 92 312 0.0 7.0 0.00 0.00 0.00 58 1013.1
20260905153005 91 268 0.0 2.6 0.00 0.00 0.00 57 1013.2
20260905151503 90 351 0.0 3.5 0.00 0.00 0.00 59 1013.2
20260905150058 89 266 0.0 7.0 0.00 0.00 0.00 61 1013.1